W9KOZ-5 Weather Reports


time (UTC)temp
C
wind
direction
speed
KPH
gust
KPH
rain 1hr
cm
rain 24hr
cm
rain mn
cm
humidity
%
barometer
mb
20260906214524 21 146 19.3 38.6 0.00 0.00 0.00 47 723.0
20260906214024 22 144 17.7 33.8 0.00 0.00 0.00 46 723.0
20260906213750 21 151 17.7 33.8 0.00 0.00 0.00 49 723.1
20260906213022 21 176 20.9 32.2 0.00 0.00 0.00 51 723.1
20260906212521 21 163 20.9 33.8 0.00 0.00 0.00 50 723.1
20260906212020 21 158 19.3 33.8 0.00 0.00 0.00 50 723.2
20260906211747 21 164 20.9 38.6 0.00 0.00 0.00 49 723.2
20260906211020 21 163 20.9 38.6 0.00 0.00 0.00 52 723.2
20260906210519 21 175 17.7 35.4 0.00 0.00 0.00 52 723.1
20260906210019 21 137 19.3 32.2 0.00 0.00 0.00 52 723.2
20260906205520 21 128 17.7 32.2 0.00 0.00 0.00 53 723.2
20260906205239 21 161 17.7 30.6 0.00 0.00 0.00 53 723.2
20260906204515 21 128 17.7 33.8 0.00 0.00 0.00 53 723.3
20260906204013 21 154 17.7 35.4 0.00 0.00 0.00 53 723.4
20260906203513 21 130 19.3 35.4 0.00 0.00 0.00 54 723.4
20260906203234 21 162 14.5 27.4 0.00 0.00 0.00 52 723.5
20260906202514 21 178 12.9 29.0 0.00 0.00 0.00 54 723.5
20260906202013 21 146 14.5 29.0 0.00 0.00 0.00 55 723.5
20260906201956 21 121 14.5 29.0 0.00 0.00 0.00 55 723.5
20260906201014 21 153 14.5 29.0 0.00 0.00 0.00 56 723.5
20260906200514 21 165 12.9 27.4 0.00 0.00 0.00 54 723.6
20260906200232 21 172 14.5 32.2 0.00 0.00 0.00 55 723.5
20260906195509 21 128 14.5 32.2 0.00 0.00 0.00 55 723.6
20260906195010 21 154 14.5 29.0 0.00 0.00 0.00 54 723.6
20260906194510 21 194 16.1 25.7 0.00 0.00 0.00 52 723.7
20260906194009 21 158 16.1 32.2 0.00 0.00 0.00 53 723.7
20260906193509 21 188 14.5 32.2 0.00 0.00 0.00 53 723.7
20260906193010 21 178 12.9 27.4 0.00 0.00 0.00 52 723.7
20260906192510 21 136 9.7 20.9 0.00 0.00 0.00 51 723.7
20260906192010 21 106 9.7 24.1 0.00 0.00 0.00 51 723.7
20260906191509 21 188 12.9 27.4 0.00 0.00 0.00 52 723.8
20260906191009 20 181 12.9 27.4 0.00 0.00 0.00 53 723.9
20260906190510 20 131 12.9 27.4 0.00 0.00 0.00 53 723.9
20260906190009 21 167 12.9 24.1 0.00 0.00 0.00 52 723.9
20260906185509 21 145 12.9 25.7 0.00 0.00 0.00 53 723.9
20260906185011 21 144 12.9 25.7 0.00 0.00 0.00 51 724.0
20260906184510 21 159 11.3 24.1 0.00 0.00 0.00 54 724.1
20260906184454 21 133 11.3 24.1 0.00 0.00 0.00 54 724.2
20260906183733 21 194 11.3 24.1 0.00 0.00 0.00 50 724.2
20260906183008 21 191 9.7 4.8 0.00 0.00 0.00 52 724.3
20260906182133 20 178 11.3 24.1 0.00 0.00 0.00 50 724.4
20260906181849 20 234 11.3 22.5 0.00 0.00 0.00 52 724.4
20260906181133 20 145 12.9 22.5 0.00 0.00 0.00 51 724.5
20260906180634 20 150 11.3 17.7 0.00 0.00 0.00 54 724.6
20260906180133 20 163 9.7 17.7 0.00 0.00 0.00 53 724.6
20260906175900 20 186 9.7 19.3 0.00 0.00 0.00 53 724.6
20260906175129 20 239 9.7 19.3 0.00 0.00 0.00 52 724.7
20260906174630 20 152 8.0 19.3 0.00 0.00 0.00 54 724.7
20260906174129 20 179 6.4 16.1 0.00 0.00 0.00 53 724.8
20260906173630 20 208 4.8 11.3 0.00 0.00 0.00 51 724.8
20260906173129 20 63 4.8 11.3 0.00 0.00 0.00 52 724.8
20260906172630 20 75 4.8 11.3 0.00 0.00 0.00 50 724.9
20260906172355 20 112 4.8 14.5 0.00 0.00 0.00 49 724.9
20260906171629 19 80 6.4 14.5 0.00 0.00 0.00 52 724.9
20260906171130 19 110 6.4 12.9 0.00 0.00 0.00 51 724.9
20260906170849 19 92 4.8 11.3 0.00 0.00 0.00 53 724.9
20260906170126 19 115 4.8 11.3 0.00 0.00 0.00 51 724.9
20260906165625 19 148 6.4 11.3 0.00 0.00 0.00 50 724.9
20260906165125 19 100 8.0 12.9 0.00 0.00 0.00 50 724.9
20260906164625 19 117 6.4 12.9 0.00 0.00 0.00 53 724.9
20260906164126 19 86 6.4 12.9 0.00 0.00 0.00 51 724.9
20260906163625 19 71 4.8 12.9 0.00 0.00 0.00 51 724.9
20260906163125 20 115 4.8 11.3 0.00 0.00 0.00 48 724.9
20260906162626 19 132 4.8 11.3 0.00 0.00 0.00 50 724.9
20260906162121 19 104 4.8 11.3 0.00 0.00 0.00 49 724.8
20260906161621 19 94 6.4 16.1 0.00 0.00 0.00 50 724.8
20260906161122 19 43 9.7 16.1 0.00 0.00 0.00 52 724.8
20260906160622 18 68 6.4 16.1 0.00 0.00 0.00 50 724.8
20260906160121 18 82 4.8 9.7 0.00 0.00 0.00 52 724.7
20260906155622 18 9 6.4 12.9 0.00 0.00 0.00 51 724.6
20260906155122 18 61 8.0 12.9 0.00 0.00 0.00 51 724.6
20260906154622 18 74 6.4 12.9 0.00 0.00 0.00 50 724.6
20260906154122 19 59 6.4 14.5 0.00 0.00 0.00 51 724.6
20260906153621 18 88 6.4 14.5 0.00 0.00 0.00 49 724.6
20260906153123 19 110 4.8 11.3 0.00 0.00 0.00 48 724.6
20260906153055 19 80 4.8 8.0 0.00 0.00 0.00 50 724.6
20260906152340 18 80 4.8 6.4 0.00 0.00 0.00 49 724.6
20260906151621 18 53 3.2 9.7 0.00 0.00 0.00 49 724.6
20260906151120 18 27 4.8 12.9 0.00 0.00 0.00 51 724.6
20260906150621 18 103 4.8 12.9 0.00 0.00 0.00 50 724.6
20260906150119 18 115 3.2 8.0 0.00 0.00 0.00 49 724.6
20260906145619 18 45 3.2 8.0 0.00 0.00 0.00 49 724.5
20260906145113 18 9 4.8 6.4 0.00 0.00 0.00 49 724.5
20260906144614 18 40 4.8 9.7 0.00 0.00 0.00 49 724.5
20260906144112 18 82 6.4 14.5 0.00 0.00 0.00 51 724.5
20260906144055 18 97 6.4 14.5 0.00 0.00 0.00 50 724.5
20260906143339 18 88 3.2 12.9 0.00 0.00 0.00 53 724.5
20260906142613 17 49 1.6 6.4 0.00 0.00 0.00 51 724.4
20260906142348 17 308 1.6 4.8 0.00 0.00 0.00 52 724.4
20260906141613 17 5 3.2 8.0 0.00 0.00 0.00 55 724.4
20260906141336 17 44 6.4 14.5 0.00 0.00 0.00 52 724.4
20260906140609 17 55 8.0 14.5 0.00 0.00 0.00 54 724.3
20260906140109 17 44 6.4 14.5 0.00 0.00 0.00 53 724.3
20260906135834 16 40 4.8 8.0 0.00 0.00 0.00 54 724.2
20260906135108 16 13 6.4 9.7 0.00 0.00 0.00 54 724.2
20260906134609 16 355 8.0 12.9 0.00 0.00 0.00 54 724.2
20260906134110 16 344 8.0 12.9 0.00 0.00 0.00 53 724.1
20260906133912 16 355 8.0 12.9 0.00 0.00 0.00 54 724.1
20260906133816 16 346 8.0 14.5 0.00 0.00 0.00 55 724.1
20260906132605 15 355 9.7 16.1 0.00 0.00 0.00 54 724.1
20260906132104 15 355 9.7 16.1 0.00 0.00 0.00 56 724.0
20260906131604 15 355 9.7 14.5 0.00 0.00 0.00 56 723.9
20260906131103 15 333 9.7 14.5 0.00 0.00 0.00 57 723.9
20260906130603 15 332 8.0 14.5 0.00 0.00 0.00 57 723.9
20260906125603 15 329 8.0 12.9 0.00 0.00 0.00 57 723.9
20260906125104 15 348 9.7 14.5 0.00 0.00 0.00 57 723.8
20260906124602 15 350 11.3 14.5 0.00 0.00 0.00 56 723.8
20260906124100 15 343 11.3 16.1 0.00 0.00 0.00 56 723.9
20260906123559 15 350 11.3 16.1 0.00 0.00 0.00 56 723.8
20260906123058 15 341 11.3 16.1 0.00 0.00 0.00 57 723.8
20260906122549 15 5 11.3 16.1 0.00 0.00 0.00 58 723.8
20260906122050 15 0 9.7 16.1 0.00 0.00 0.00 57 723.8
20260906121549 15 346 9.7 14.5 0.00 0.00 0.00 57 723.7
20260906121314 15 355 9.7 14.5 0.00 0.00 0.00 57 723.7
20260906120548 15 345 9.7 12.9 0.00 0.00 0.00 57 723.7
20260906120050 15 346 9.7 12.9 0.00 0.00 0.00 57 723.7
20260906115549 15 341 8.0 12.9 0.00 0.00 0.00 58 723.6
20260906115047 15 340 8.0 9.7 0.00 0.00 0.00 58 723.6
20260906114546 15 355 8.0 9.7 0.00 0.00 0.00 58 723.7
20260906114046 15 355 8.0 11.3 0.00 0.00 0.00 58 723.7
20260906113545 15 355 6.4 11.3 0.00 0.00 0.00 58 723.7
20260906113044 15 5 4.8 8.0 0.00 0.00 0.00 58 723.7
20260906112544 15 342 3.2 6.4 0.00 0.00 0.00 58 723.6
20260906112040 15 332 1.6 4.8 0.00 0.00 0.00 60 723.7
20260906111801 15 291 0.0 0.0 0.00 0.00 0.00 59 723.7
20260906111038 15 291 1.6 4.8 0.00 0.00 0.00 59 723.6
20260906110536 15 291 3.2 4.8 0.00 0.00 0.00 59 723.6
20260906110256 15 285 3.2 6.4 0.00 0.00 0.00 59 723.6
20260906105534 15 314 4.8 11.3 0.00 0.00 0.00 59 723.6
20260906105032 15 313 6.4 11.3 0.00 0.00 0.00 60 723.6
20260906104533 15 319 6.4 11.3 0.00 0.00 0.00 60 723.6
20260906104033 15 314 6.4 12.9 0.00 0.00 0.00 60 723.6
20260906103528 15 309 6.4 14.5 0.00 0.00 0.00 60 723.6
20260906103028 15 327 8.0 14.5 0.00 0.00 0.00 60 723.6
20260906102527 15 329 11.3 17.7 0.00 0.00 0.00 60 723.6
20260906102026 15 322 11.3 17.7 0.00 0.00 0.00 58 723.6
20260906101526 15 342 9.7 17.7 0.00 0.00 0.00 60 723.6
20260906101027 15 336 11.3 17.7 0.00 0.00 0.00 61 723.6
20260906100527 15 0 9.7 16.1 0.00 0.00 0.00 61 723.7
20260906100244 15 0 9.7 14.5 0.00 0.00 0.00 60 723.8
20260906095528 15 346 8.0 12.9 0.00 0.00 0.00 58 723.8
20260906095245 16 349 8.0 12.9 0.00 0.00 0.00 59 723.7
20260906094523 16 10 6.4 12.9 0.00 0.00 0.00 58 723.8
20260906094025 16 21 6.4 8.0 0.00 0.00 0.00 56 723.8
20260906093744 16 44 4.8 6.4 0.00 0.00 0.00 56 723.8
20260906093022 16 49 3.2 6.4 0.00 0.00 0.00 55 723.8
20260906092523 16 59 4.8 6.4 0.00 0.00 0.00 55 723.8
20260906092023 16 101 4.8 9.7 0.00 0.00 0.00 55 723.7
20260906092008 16 107 4.8 9.7 0.00 0.00 0.00 55 723.7
20260906091023 16 113 4.8 11.3 0.00 0.00 0.00 54 723.7
20260906090740 16 119 8.0 12.9 0.00 0.00 0.00 54 723.7
20260906090020 17 134 9.7 14.5 0.00 0.00 0.00 53 723.8
20260906085520 17 164 9.7 14.5 0.00 0.00 0.00 53 723.8
20260906085254 17 153 8.0 12.9 0.00 0.00 0.00 52 723.8
20260906084519 17 158 8.0 12.9 0.00 0.00 0.00 52 723.8
20260906084018 17 176 6.4 12.9 0.00 0.00 0.00 52 723.7
20260906083518 16 173 8.0 14.5 0.00 0.00 0.00 53 723.8
20260906083243 16 181 8.0 14.5 0.00 0.00 0.00 53 723.8
20260906082520 16 169 9.7 16.1 0.00 0.00 0.00 53 723.8
20260906082014 16 168 8.0 16.1 0.00 0.00 0.00 53 723.8
20260906081515 16 177 6.4 12.9 0.00 0.00 0.00 53 723.8
20260906081014 16 186 8.0 14.5 0.00 0.00 0.00 53 723.8
20260906080516 16 198 8.0 14.5 0.00 0.00 0.00 54 723.8
20260906080014 16 167 6.4 14.5 0.00 0.00 0.00 54 723.8
20260906075515 16 188 6.4 12.9 0.00 0.00 0.00 54 723.8
20260906075233 16 207 6.4 12.9 0.00 0.00 0.00 54 723.8
20260906074514 16 190 6.4 9.7 0.00 0.00 0.00 54 723.8
20260906074235 16 190 6.4 11.3 0.00 0.00 0.00 54 723.8
20260906073734 16 194 8.0 11.3 0.00 0.00 0.00 55 723.7
20260906073014 16 192 8.0 11.3 0.00 0.00 0.00 55 723.8
20260906072514 16 200 8.0 11.3 0.00 0.00 0.00 54 723.8
20260906072235 16 204 8.0 12.9 0.00 0.00 0.00 53 723.8
20260906071515 16 184 8.0 12.9 0.00 0.00 0.00 53 723.8
20260906071238 16 213 8.0 11.3 0.00 0.00 0.00 53 723.9
20260906070514 16 217 8.0 11.3 0.00 0.00 0.00 53 723.9
20260906070014 16 223 8.0 12.9 0.00 0.00 0.00 54 723.9
20260906065512 16 218 8.0 12.9 0.00 0.00 0.00 54 723.8
20260906065011 16 242 8.0 12.9 0.00 0.00 0.00 55 723.9
20260906064510 16 242 9.7 14.5 0.00 0.00 0.00 56 723.8
20260906064010 16 234 11.3 17.7 0.00 0.00 0.00 56 723.9
20260906063952 16 211 12.9 17.7 0.00 0.00 0.00 56 723.9
20260906063010 16 221 11.3 17.7 0.00 0.00 0.00 56 723.9
20260906062735 16 217 11.3 16.1 0.00 0.00 0.00 56 723.9
20260906062010 16 205 12.9 20.9 0.00 0.00 0.00 56 723.9
20260906061510 16 219 14.5 20.9 0.00 0.00 0.00 56 723.8
20260906061010 16 211 12.9 17.7 0.00 0.00 0.00 56 723.8
20260906060509 16 200 11.3 9.7 0.00 0.00 0.00 57 723.9
20260906055639 16 193 11.3 17.7 0.00 0.00 0.00 54 723.9
20260906055139 16 186 11.3 17.7 0.00 0.00 0.00 53 724.0
20260906054639 16 188 11.3 17.7 0.00 0.00 0.00 52 723.9
20260906054400 17 172 11.3 17.7 0.00 0.00 0.00 51 723.9
20260906053911 17 199 11.3 19.3 0.00 0.00 0.00 50 723.9
20260906053135 17 211 11.3 19.3 0.00 0.00 0.00 50 723.9
20260906052636 17 200 12.9 19.3 0.00 0.00 0.00 50 724.0
20260906052136 17 182 12.9 19.3 0.00 0.00 0.00 49 724.0
20260906051635 17 191 14.5 22.5 0.00 0.00 0.00 51 724.1
20260906051135 17 201 14.5 22.5 0.00 0.00 0.00 50 724.1
20260906050635 17 191 14.5 22.5 0.00 0.00 0.00 51 724.2
20260906050134 17 187 12.9 20.9 0.00 0.00 0.00 53 724.2
20260906045635 17 198 12.9 20.9 0.00 0.00 0.00 54 724.2
20260906045135 17 188 12.9 22.5 0.00 0.00 0.00 53 724.2
20260906045117 17 184 16.1 25.7 0.00 0.00 0.00 54 724.2
20260906044355 17 194 17.7 25.7 0.00 0.00 0.00 54 724.2
20260906043855 17 146 16.1 30.6 0.00 0.00 0.00 54 724.2
20260906043131 16 198 16.1 30.6 0.00 0.00 0.00 55 724.1
20260906042632 16 185 16.1 29.0 0.00 0.00 0.00 56 724.2
20260906042132 16 186 14.5 27.4 0.00 0.00 0.00 58 724.3
20260906041631 16 190 14.5 22.5 0.00 0.00 0.00 59 724.3
20260906041133 16 188 16.1 30.6 0.00 0.00 0.00 59 724.2
20260906040857 16 177 16.1 30.6 0.00 0.00 0.00 59 724.2
20260906040127 16 199 11.3 20.9 0.00 0.00 0.00 63 724.3
20260906035626 16 173 8.0 16.1 0.00 0.00 0.00 65 724.4
20260906035332 16 153 11.3 20.9 0.00 0.00 0.00 63 724.4
20260906035218 16 187 9.7 17.7 0.00 0.00 0.00 65 724.4
20260906034127 16 157 12.9 22.5 0.00 0.00 0.00 62 724.4
20260906033851 16 166 14.5 27.4 0.00 0.00 0.00 61 724.4
20260906033127 16 155 14.5 27.4 0.00 0.00 0.00 61 724.3
20260906032629 16 177 12.9 24.1 0.00 0.00 0.00 63 724.3
20260906032346 16 161 12.9 25.7 0.00 0.00 0.00 62 724.4
20260906031623 16 156 14.5 25.7 0.00 0.00 0.00 62 724.3
20260906031344 17 142 11.3 24.1 0.00 0.00 0.00 61 724.3
20260906030844 17 153 12.9 24.1 0.00 0.00 0.00 61 724.2
20260906030124 17 153 12.9 24.1 0.00 0.00 0.00 60 724.2
20260906025623 17 117 9.7 22.5 0.00 0.00 0.00 58 724.2
20260906025122 17 112 8.0 16.1 0.00 0.00 0.00 56 724.0
20260906024623 17 110 8.0 16.1 0.00 0.00 0.00 52 724.0
20260906024123 17 48 11.3 17.7 0.00 0.00 0.00 51 723.9
20260906023625 17 54 14.5 27.4 0.00 0.00 0.00 50 723.9
20260906023118 18 47 17.7 30.6 0.00 0.00 0.00 48 723.9
20260906022619 18 46 14.5 30.6 0.00 0.00 0.00 46 723.8
20260906022119 18 42 11.3 24.1 0.00 0.00 0.00 44 723.7
20260906021619 18 46 12.9 20.9 0.00 0.00 0.00 44 723.7
20260906021119 18 25 11.3 20.9 0.00 0.00 0.00 45 723.6
20260906020620 18 64 8.0 19.3 0.00 0.00 0.00 45 723.6
20260906020119 18 42 8.0 16.1 0.00 0.00 0.00 44 723.5
20260906015619 18 22 9.7 16.1 0.00 0.00 0.00 44 723.5
20260906015120 18 34 8.0 14.5 0.00 0.00 0.00 44 723.6
20260906014842 18 24 8.0 14.5 0.00 0.00 0.00 45 723.5
20260906014120 18 54 6.4 14.5 0.00 0.00 0.00 45 723.5
20260906013618 18 38 4.8 12.9 0.00 0.00 0.00 45 723.5
20260906013120 18 355 6.4 11.3 0.00 0.00 0.00 45 723.6
20260906012618 18 29 6.4 11.3 0.00 0.00 0.00 45 723.6
20260906012121 18 21 6.4 9.7 0.00 0.00 0.00 45 723.6
20260906011620 18 21 6.4 9.7 0.00 0.00 0.00 44 723.6
20260906011118 18 0 6.4 9.7 0.00 0.00 0.00 44 723.6
20260906010619 19 28 8.0 11.3 0.00 0.00 0.00 44 723.6
20260906010117 19 36 6.4 11.3 0.00 0.00 0.00 43 723.6
20260906005616 19 21 4.8 9.7 0.00 0.00 0.00 43 723.6
20260906005116 19 9 4.8 8.0 0.00 0.00 0.00 43 723.7
20260906004616 19 57 6.4 12.9 0.00 0.00 0.00 43 723.8
20260906004112 19 192 6.4 12.9 0.00 0.00 0.00 45 723.8
20260906003829 20 166 4.8 9.7 0.00 0.00 0.00 45 723.7
20260906003327 20 163 4.8 9.7 0.00 0.00 0.00 46 723.8
20260906002610 20 132 3.2 11.3 0.00 0.00 0.00 41 723.8
20260906002111 21 281 1.6 11.3 0.00 0.00 0.00 41 723.8
20260906001609 21 87 3.2 6.4 0.00 0.00 0.00 41 723.8
20260906001322 21 100 6.4 14.5 0.00 0.00 0.00 40 723.7
20260906000601 21 84 4.8 14.5 0.00 0.00 0.00 40 723.7
20260906000059 21 90 3.2 12.9 0.00 0.00 0.00 40 723.7
20260905235559 21 0 4.8 9.7 0.00 0.00 0.00 40 723.7
20260905235059 21 89 6.4 12.9 0.00 0.00 0.00 40 723.7
20260905234557 21 88 4.8 12.9 0.00 0.00 0.00 40 723.8
20260905234056 21 113 4.8 14.5 0.00 0.00 0.00 41 723.7
20260905233555 21 85 8.0 14.5 0.00 0.00 0.00 40 723.7
20260905233053 21 84 8.0 20.9 0.00 0.00 0.00 40 723.6
20260905232810 21 63 8.0 20.9 0.00 0.00 0.00 41 723.6
20260905232048 21 28 6.4 14.5 0.00 0.00 0.00 40 723.6
20260905231547 21 62 4.8 8.0 0.00 0.00 0.00 43 723.6
20260905231040 20 33 6.4 11.3 0.00 0.00 0.00 44 723.6
20260905230540 20 5 6.4 11.3 0.00 0.00 0.00 44 723.7
20260905230040 20 337 6.4 11.3 0.00 0.00 0.00 44 723.6
20260905225759 19 10 8.0 14.5 0.00 0.00 0.00 45 723.6
20260905225040 19 0 9.7 16.1 0.00 0.00 0.00 44 723.7
20260905224541 19 331 8.0 16.1 0.00 0.00 0.00 45 723.6
20260905224040 19 355 8.0 14.5 0.00 0.00 0.00 45 723.7
20260905223539 20 10 6.4 14.5 0.00 0.00 0.00 45 723.7
20260905223038 20 13 6.4 12.9 0.00 0.00 0.00 44 723.7
20260905222539 20 355 8.0 16.1 0.00 0.00 0.00 44 723.7
20260905222035 20 55 9.7 16.1 0.00 0.00 0.00 42 723.7
20260905221532 20 67 8.0 14.5 0.00 0.00 0.00 41 723.6
20260905221033 20 41 8.0 14.5 0.00 0.00 0.00 41 723.6
20260905220532 21 5 8.0 17.7 0.00 0.00 0.00 41 723.7
20260905220032 21 44 9.7 17.7 0.00 0.00 0.00 41 723.7
20260905215752 21 31 9.7 17.7 0.00 0.00 0.00 42 723.8